Wind_Speed
10 10 10 9 7 4 5 7 7 9 9 8 6 7 7 7 8 8 12 14 13 14 15 13 15 15 14 15 15 16 17 17 17 17 16 15 15 15 15 14 13 14 14
9 7 7 7 8 7 6 5 1 4 6 7 8 7 8 9 12 13 15 13 12 13 12 13 13 13 14 14 15 15 16 18 20 19 18 18 17 17 18 17 18 18 18
10 11 9 6 6 6 6 6 6 6 5 4 5 8 10 10 10 12 13 14 15 17 17 17 17 16 16 16 16 16 16 15 16 19 20 21 22 21 21 21 21 22 21
7 8 8 9 9 7 5 6 6 6 5 5 4 4 5 7 9 11 12 12 12 13 15 17 18 19 19 19 19 17 15 15 15 16 17 18 18 19 21 23 24 24 23
5 4 5 6 7 7 7 6 3 3 4 5 5 5 5 6 6 7 9 10 10 11 12 14 15 16 17 17 16 16 16 15 16 16 16 16 17 18 18 21 23 24 23
4 4 4 3 3 3 3 4 4 5 5 6 7 7 7 8 8 8 9 11 11 12 12 13 14 15 15 16 17 17 17 17 17 18 18 17 17 18 18 20 21 22 23
6 6 5 4 4 5 4 3 2 3 4 5 6 7 9 10 11 11 12 13 12 12 13 14 14 15 16 18 18 19 19 20 20 20 20 20 21 21 21 20 20 21 22
3 4 5 5 5 5 6 7 7 8 8 8 8 8 8 9 10 11 12 14 15 16 16 17 17 17 17 17 18 19 20 22 22 23 24 23 22 22 22 22 22 22 22
5 5 4 4 5 5 5 6 8 10 11 12 13 15 15 16 15 14 14 15 15 16 16 17 19 20 21 21 21 21 21 22 23 24 24 24 24 24 25 24 27 27 25
6 8 9 9 9 9 10 10 9 9 10 12 14 15 15 15 16 18 20 22 22 21 20 19 20 20 21 22 24 24 24 25 25 25 26 26 26 26 26 27 27 27 26
7 8 7 7 7 8 9 11 12 14 14 14 14 16 17 19 20 20 20 21 22 24 26 28 27 26 25 24 24 24 25 27 29 29 29 29 29 29 29 29 29 29 30
9 8 8 7 7 8 9 10 11 12 14 16 17 18 19 21 22 22 24 26 26 26 27 28 29 30 32 32 31 30 29 28 29 29 31 32 32 32 32 32 32 32 32
9 10 11 11 11 10 9 10 12 15 17 18 19 21 21 22 24 27 27 29 29 29 30 31 32 32 33 33 35 36 36 36 35 33 33 33 32 33 33 34 34 34 35
10 11 12 12 12 11 10 9 9 10 13 16 18 21 23 24 25 28 30 31 32 34 34 35 36 36 37 36 37 38 38 38 39 39 38 37 36 36 35 34 34 34 35
13 13 14 14 13 12 11 11 9 10 12 16 19 22 24 25 25 27 30 33 36 37 38 39 39 40 41 42 41 41 40 41 42 42 41 42 42 42 40 39 39 38 37
15 14 14 14 13 14 14 15 15 14 13 12 16 20 23 25 28 32 35 37 38 38 40 42 42 44 44 44 46 46 46 46 46 45 45 45 44 45 46 46 45 44 43
17 17 18 18 18 18 17 16 17 17 18 18 20 20 20 23 26 28 31 34 38 40 42 45 47 47 46 48 48 49 50 51 51 51 50 49 48 48 48 48 48 49 49
20 20 20 20 19 20 20 19 19 18 21 22 24 25 26 29 31 31 34 36 39 41 44 46 49 52 52 52 51 50 52 53 54 54 54 55 54 53 52 52 52 51 51
23 22 23 25 26 24 24 23 22 22 23 25 26 29 32 34 35 38 39 40 42 44 46 49 50 53 55 57 58 56 55 55 55 57 58 58 58 58 57 56 55 55 55
23 26 28 27 28 28 28 29 28 28 29 29 31 30 31 34 38 40 43 44 47 50 52 54 54 56 57 58 59 61 61 59 58 58 60 60 61 61 60 60 61 60 59
26 28 30 30 31 32 28 30 32 35 37 38 40 42 45 46 46 46 48 50 52 56 58 60 62 62 62 62 63 63 63 65 64 62 60 61 61 62 62 62 61 63 63
28 30 30 30 28 30 33 34 38 42 41 46 47 49 48 49 53 57 57 58 60 63 64 65 67 68 67 66 66 67 67 66 65 66 65 62 60 61 63 64 64 63 63
31 31 32 33 35 36 37 38 40 41 44 47 48 49 52 54 56 61 64 67 67 65 66 66 67 69 69 68 67 68 68 67 68 67 66 66 64 64 64 65 65 65 64
31 30 34 37 38 38 39 40 42 42 45 48 51 55 57 59 61 62 65 67 68 67 67 69 69 70 70 71 70 71 70 70 70 68 67 66 67 68 68 69 68 68 69
30 34 37 40 41 40 42 43 44 45 50 52 54 56 59 61 63 67 68 69 70 70 70 71 72 73 73 74 72 74 75 76 76 75 73 73 74 74 72 72 74 74 73
34 37 40 42 44 46 47 47 48 50 53 55 57 58 59 61 62 65 68 70 72 73 75 76 75 75 75 76 76 77 77 76 75 78 78 75 73 70 70 70 70 70 75
Wind_Direction
84 84 82 81 83 124 193 223 238 250 252 253 257 263 261 252 252 250 255 262 265 270 278 280 275 274 273 271 270 271 269 269 268 268 267 268 269 269 270 274 280 281 276
78 82 74 69 75 79 77 71 83 245 258 257 263 265 273 267 263 271 265 264 266 269 276 283 285 280 280 281 282 281 276 269 270 272 272 273 272 276 271 271 275 268 267
73 69 71 71 58 52 54 56 50 43 30 326 280 261 261 266 274 273 273 274 276 275 272 274 280 285 287 290 293 294 289 285 280 276 274 272 274 274 271 271 267 264 257
71 68 62 60 63 60 34 25 19 20 19 12 2 331 288 267 263 269 274 276 277 276 276 277 279 280 280 285 289 292 294 296 293 288 284 281 278 278 274 269 262 258 255
39 53 81 74 59 49 48 43 17 343 339 339 335 331 321 309 294 289 285 280 282 275 275 276 279 281 284 285 283 285 284 287 288 287 285 284 284 282 279 268 264 262 259
50 34 19 20 43 80 85 54 29 18 2 331 316 313 308 304 304 305 303 303 301 296 290 285 281 279 281 281 284 283 281 282 282 284 283 281 277 281 280 271 265 265 263
39 32 16 2 352 342 337 334 332 337 334 334 331 331 319 311 306 305 304 300 297 294 293 292 290 289 285 282 280 281 283 283 282 281 282 281 280 283 281 276 271 266 265
38 32 27 23 13 354 338 327 322 314 309 303 300 302 304 306 308 309 305 298 294 292 292 291 291 290 288 285 283 280 278 278 279 280 281 280 281 282 278 278 278 276 271
339 337 341 345 343 341 340 339 337 333 329 322 317 313 311 308 302 296 295 293 294 297 297 294 289 286 287 286 284 282 280 278 277 275 275 275 275 276 276 274 275 269 277
330 327 327 325 321 321 321 320 315 313 316 319 321 319 317 312 306 305 305 302 299 294 290 287 288 288 285 283 280 279 279 279 278 277 276 274 275 275 274 274 273 273 268
302 299 300 304 307 308 308 312 317 319 321 317 314 312 310 311 310 310 306 300 297 296 296 295 291 285 281 280 279 278 276 273 273 273 274 276 276 274 273 273 274 274 273
296 293 279 279 288 294 299 302 302 304 308 310 311 310 309 306 304 304 303 304 302 301 300 296 292 290 289 287 283 279 275 272 271 271 270 269 270 272 273 274 273 271 269
285 279 275 274 276 277 282 292 300 303 307 309 309 306 301 301 301 304 303 299 297 295 294 295 295 294 292 288 284 281 280 279 277 274 271 270 269 268 268 269 270 270 270
282 285 281 274 275 282 297 310 309 303 300 300 302 304 306 307 305 302 301 301 300 299 298 294 290 289 288 287 287 285 281 278 277 276 276 274 271 269 268 267 266 267 268
277 275 277 277 278 280 277 282 309 320 310 310 310 307 304 303 304 302 305 305 304 301 298 295 292 289 287 285 283 282 283 282 279 276 274 274 273 272 270 269 267 265 264
270 269 269 264 258 255 263 269 278 282 296 305 303 307 308 311 313 312 311 308 304 301 300 297 295 293 290 286 285 284 281 280 280 279 278 275 273 272 272 270 269 268 267
269 257 254 254 257 264 267 266 269 275 280 281 285 288 291 296 298 305 310 311 309 306 301 300 297 294 292 289 285 284 282 279 278 277 276 275 275 274 271 270 270 270 269
267 270 266 267 263 263 266 271 280 287 286 288 290 288 287 285 286 291 298 299 304 304 304 303 295 289 288 288 285 282 279 278 279 276 275 275 274 272 272 274 274 271 270
279 278 274 271 273 276 278 274 270 272 278 283 287 293 296 293 295 294 293 290 291 292 292 293 290 286 283 283 284 284 282 278 275 274 274 273 272 272 272 270 269 270 271
279 276 271 273 276 276 276 279 280 283 285 287 286 288 290 289 293 291 289 292 292 292 289 287 285 284 282 280 280 281 281 278 276 275 274 273 272 270 269 268 269 268 267
277 273 274 276 280 281 289 294 297 298 299 298 292 290 291 290 289 287 290 287 288 286 285 283 284 282 281 280 279 278 279 280 278 276 272 271 272 273 272 269 266 266 266
274 276 279 284 293 294 291 292 295 293 290 291 292 293 293 294 291 288 287 288 288 289 286 285 284 283 283 284 283 281 280 278 278 277 275 273 271 270 270 270 269 266 265
267 269 273 281 285 289 291 292 290 291 292 294 294 296 296 296 293 289 288 289 290 290 288 287 285 284 284 283 283 282 280 277 276 274 274 274 274 272 269 268 267 267 266
271 271 278 282 284 287 292 295 297 298 296 299 298 295 295 295 293 291 290 289 289 289 288 286 285 284 282 281 279 278 277 276 275 273 272 271 271 272 271 270 269 267 265
272 275 275 278 281 289 295 296 297 298 299 297 296 294 294 295 294 295 294 292 291 290 289 288 286 284 283 282 282 281 280 279 277 275 273 272 272 272 271 273 273 269 266
268 271 276 284 286 291 295 297 298 299 299 297 294 295 298 298 298 297 293 293 292 290 288 286 285 284 284 284 284 283 284 283 283 283 281 279 276 274 274 274 272 272 274
Height
5859 5859 5860 5860 5860 5859 5860 5861 5861 5862 5862 5864 5865 5866 5867 5868 5870 5870 5872 5872 5872 5871 5871 5871 5872 5873 5873 5874 5875 5876 5876 5877 5877 5877 5878 5878 5878 5878 5878 5877 5876 5876 5876
5860 5860 5861 5861 5861 5861 5861 5861 5861 5862 5862 5863 5864 5865 5867 5868 5869 5870 5871 5871 5871 5872 5872 5871 5872 5872 5872 5872 5873 5874 5874 5875 5876 5876 5876 5876 5875 5876 5876 5875 5875 5874 5873
5862 5862 5862 5862 5862 5863 5863 5862 5862 5863 5863 5863 5864 5866 5867 5867 5868 5869 5870 5869 5870 5870 5871 5871 5872 5872 5871 5872 5872 5872 5872 5872 5873 5873 5873 5873 5873 5873 5873 5873 5872 5872 5871
5863 5863 5863 5863 5863 5863 5863 5863 5863 5863 5864 5865 5865 5865 5866 5866 5867 5868 5868 5868 5869 5869 5869 5870 5870 5870 5871 5870 5870 5870 5870 5870 5870 5871 5871 5870 5871 5871 5871 5870 5870 5870 5870
5863 5863 5863 5863 5864 5864 5865 5865 5865 5865 5865 5865 5866 5866 5866 5866 5867 5867 5868 5868 5868 5868 5868 5868 5868 5869 5868 5868 5868 5867 5868 5868 5868 5868 5868 5868 5869 5868 5868 5867 5867 5868 5868
5863 5863 5863 5864 5864 5863 5864 5864 5865 5865 5865 5865 5866 5866 5866 5867 5867 5867 5867 5867 5867 5867 5867 5867 5868 5868 5867 5867 5866 5866 5865 5865 5865 5865 5865 5866 5866 5865 5865 5865 5864 5864 5865
5863 5863 5863 5863 5864 5864 5864 5865 5865 5864 5865 5865 5865 5865 5866 5866 5866 5866 5866 5867 5867 5867 5866 5866 5866 5866 5865 5865 5865 5864 5864 5863 5863 5863 5862 5862 5862 5862 5861 5861 5862 5861 5861
5863 5863 5863 5863 5862 5863 5863 5863 5864 5865 5865 5865 5866 5866 5866 5866 5865 5866 5866 5866 5866 5865 5865 5864 5864 5863 5864 5863 5862 5861 5861 5861 5860 5860 5860 5859 5859 5859 5859 5858 5858 5858 5858
5862 5862 5863 5862 5862 5862 5862 5862 5863 5863 5864 5864 5865 5865 5866 5866 5866 5866 5865 5864 5864 5863 5863 5862 5862 5861 5860 5859 5859 5859 5858 5857 5857 5857 5857 5856 5856 5855 5855 5855 5854 5854 5853
5862 5862 5862 5862 5862 5862 5862 5861 5861 5860 5861 5861 5862 5862 5861 5861 5861 5862 5863 5863 5863 5862 5861 5860 5859 5858 5857 5856 5855 5855 5854 5853 5853 5853 5852 5852 5852 5851 5851 5851 5851 5851 5851
5861 5860 5860 5859 5859 5859 5859 5860 5860 5860 5860 5859 5859 5858 5858 5858 5858 5858 5858 5857 5857 5857 5857 5857 5857 5855 5854 5853 5852 5851 5850 5849 5848 5848 5847 5847 5846 5846 5846 5846 5846 5846 5846
5859 5858 5858 5858 5857 5857 5857 5857 5857 5857 5857 5857 5857 5857 5857 5856 5855 5854 5854 5854 5853 5852 5852 5851 5851 5850 5850 5849 5848 5847 5846 5844 5843 5842 5841 5840 5840 5840 5840 5840 5840 5840 5840
5857 5856 5856 5855 5855 5854 5854 5854 5855 5855 5855 5855 5854 5853 5853 5852 5852 5851 5850 5849 5849 5848 5848 5847 5846 5845 5844 5843 5842 5841 5841 5840 5839 5837 5835 5834 5833 5833 5833 5833 5833 5833 5833
5855 5854 5854 5853 5853 5853 5852 5852 5852 5852 5852 5851 5851 5851 5850 5849 5848 5846 5845 5844 5843 5843 5843 5842 5840 5839 5838 5837 5835 5834 5833 5832 5831 5831 5830 5829 5828 5827 5826 5826 5826 5826 5826
5852 5852 5851 5851 5850 5850 5849 5849 5849 5848 5846 5846 5846 5845 5845 5844 5844 5843 5842 5841 5839 5838 5836 5835 5834 5833 5832 5830 5828 5827 5826 5824 5823 5821 5821 5820 5821 5821 5820 5820 5819 5818 5818
5849 5848 5847 5846 5846 5844 5845 5845 5846 5846 5845 5844 5843 5842 5841 5840 5838 5836 5835 5834 5833 5833 5832 5830 5828 5826 5825 5823 5821 5820 5819 5817 5815 5814 5813 5811 5810 5810 5811 5810 5810 5810 5810
5845 5844 5842 5841 5841 5840 5840 5840 5840 5840 5840 5840 5839 5838 5836 5835 5833 5832 5830 5828 5826 5825 5824 5822 5820 5817 5817 5815 5813 5811 5810 5808 5806 5805 5803 5802 5801 5801 5800 5799 5800 5800 5800
5838 5838 5838 5838 5837 5836 5836 5836 5835 5835 5834 5833 5831 5830 5829 5828 5827 5826 5823 5821 5819 5817 5816 5814 5812 5809 5807 5804 5802 5801 5799 5798 5796 5794 5793 5792 5791 5789 5789 5789 5789 5789 5789
5835 5834 5834 5834 5833 5833 5833 5831 5830 5828 5826 5825 5824 5823 5823 5822 5820 5817 5815 5813 5811 5809 5807 5804 5802 5800 5796 5793 5791 5789 5787 5785 5784 5783 5781 5780 5779 5778 5778 5777 5775 5776 5776
5830 5830 5830 5829 5829 5829 5828 5827 5826 5823 5821 5819 5817 5815 5812 5810 5809 5807 5805 5803 5801 5798 5795 5793 5790 5788 5786 5783 5780 5777 5775 5773 5771 5770 5769 5767 5765 5764 5764 5764 5763 5763 5762
5824 5824 5824 5824 5824 5824 5822 5821 5820 5819 5817 5815 5813 5810 5807 5804 5799 5795 5793 5790 5787 5787 5783 5780 5777 5774 5772 5770 5768 5765 5762 5760 5757 5755 5753 5753 5752 5751 5750 5750 5749 5748 5748
5817 5817 5818 5818 5817 5816 5815 5813 5812 5810 5808 5806 5803 5801 5797 5793 5791 5789 5784 5780 5776 5773 5770 5767 5764 5762 5759 5756 5754 5750 5748 5746 5742 5742 5740 5739 5737 5735 5735 5735 5734 5733 5733
5809 5809 5809 5809 5808 5808 5807 5805 5803 5801 5799 5797 5794 5790 5787 5784 5780 5776 5772 5768 5763 5759 5756 5752 5748 5746 5743 5740 5738 5736 5732 5730 5729 5727 5724 5722 5722 5720 5719 5719 5718 5717 5717
5802 5802 5802 5801 5800 5799 5798 5795 5793 5791 5788 5785 5782 5779 5774 5771 5767 5763 5759 5754 5750 5746 5742 5738 5735 5731 5727 5724 5721 5718 5714 5712 5710 5711 5710 5708 5705 5704 5702 5701 5701 5700 5699
5794 5793 5793 5792 5791 5790 5787 5785 5783 5779 5777 5773 5770 5766 5762 5758 5754 5751 5746 5741 5735 5730 5726 5721 5717 5713 5709 5705 5702 5699 5696 5692 5690 5688 5691 5691 5689 5688 5688 5685 5681 5681 5680
5784 5784 5784 5783 5781 5779 5776 5773 5770 5767 5764 5761 5758 5754 5749 5745 5740 5735 5730 5725 5719 5715 5709 5704 5699 5694 5690 5687 5683 5679 5675 5671 5667 5664 5664 5665 5669 5671 5667 5666 5665 5664 5660